Погода в Кунингане

Индонезия     6°57′54″S   108°30′35″E
темп.,
°C
ветер,
м/с
пор.,
м/с
влажн.,
%
обл.,
%
осадки,
мм/ч
давл.,
гПа
погр.,
м
2 марта, вт
вт201:00+22сз019588 0.8 101123
04:00+21ссз1193100 0.0 100924
07:00+23з118884 0.3 101159
10:00+29с126232 0.1 10111030
13:00+29ссв126943 2.4 1009990
16:00+24юз1291100 10.6 100850
19:00+22юз0195100 14.9 101037
22:00+21в1195100 1.1 101276
3 марта, ср
ср301:00+22зсз1191100 1.2 101024
04:00+21ссз1192100 0.0 100925
07:00+22зсз1189100 0.0 101027
10:00+24ссв128799 0.0 1011247
13:00+25св128597 0.1 1009402
16:00+24св239082 0.9 1008399
19:00+22ссв119785 4.7 101064
22:00+22ссз1294100 5.0 101252
4 марта, чт
чт401:00+22сз1194100 7.9 101248
04:00+21сз119493 0.8 101134
07:00+22зсз018995 0.8 101264
10:00+26с117392 0.0 1012447
13:00+28св216490 0.1 1010761
16:00+26юв1178100 3.0 1009384
19:00+22ю2292100 8.2 101164
22:00+22юз2295100 1.4 101260
5 марта, пт
пт501:00+21юз2295100 1.4 101152
04:00+22юз2292100 0.0 101051
07:00+22юз2291100 0.0 1012118
10:00+29ю226081 0.0 1012806
13:00+31всв125463 1.0 10091425
16:00+26ссв238371 4.3 1007517
19:00+23св119485 8.0 101023
22:00+22ссз0194100 0.6 101123
6 марта, сб
сб601:00+22зсз119481 1.5 101025
04:00+22зюз119396 0.4 100924
07:00+23з018991 1.1 101154
10:00+28ссв22681 1.3 1011901
13:00+27ссв338019 10.6 1009750
16:00+24ссв1193100 11.9 1008130
19:00+22юз0098100 30.0 101063
22:00+21ююз2398100 32.6 1012154